When you browse on this site, cookies collect data to enhance your experience and personalize the content and advertising you see.
Visit our Privacy Policy to learn more. By continuing to use the site, you agree to this use of cookies and data.
  • In Latvia
  • List of Countries
  • For 7 days
  • Water Temperature
  • Weather Map
  • Weather Widgets
  • user-avatar
    Login

    Hourly Weather Preobrazhenka

    Today, 28 May, Thursday

    Time Temperature Precipitation Wind Pressure Humidity
    00:00 +7°C° 0 mm 8 mps 717 mmHg 58%
    01:00 +8°C° 0 mm 7 mps 717 mmHg 58%
    02:00 +7°C° 0 mm 6 mps 717 mmHg 59%
    03:00 +7°C° 0 mm 5 mps 717 mmHg 59%
    04:00 +7°C° 0 mm 5 mps 717 mmHg 59%
    05:00 +7°C° 0 mm 5 mps 717 mmHg 59%
    06:00 +7°C° 0 mm 5 mps 717 mmHg 55%
    07:00 +10°C° 0 mm 5 mps 717 mmHg 48%
    08:00 +13°C° 0 mm 5 mps 717 mmHg 42%
    09:00 +15°C° 0 mm 4 mps 718 mmHg 35%
    10:00 +18°C° 0 mm 4 mps 717 mmHg 33%
    11:00 +19°C° 0 mm 4 mps 717 mmHg 31%
    12:00 +20°C° 0 mm 4 mps 717 mmHg 29%
    13:00 +21°C° 0 mm 5 mps 717 mmHg 29%
    14:00 +21°C° 0 mm 5 mps 717 mmHg 30%
    15:00 +22°C° 0 mm 5 mps 716 mmHg 31%
    16:00 +21°C° 0 mm 6 mps 716 mmHg 35%
    17:00 +20°C° 0 mm 7 mps 716 mmHg 39%
    18:00 +18°C° 0 mm 7 mps 716 mmHg 43%
    19:00 +16°C° 0 mm 7 mps 716 mmHg 49%
    20:00 +14°C° 0 mm 6 mps 716 mmHg 55%
    21:00 +11°C° 0 mm 6 mps 716 mmHg 61%
    22:00 +10°C° 0 mm 5 mps 716 mmHg 62%
    23:00 +9°C° 0 mm 5 mps 716 mmHg 63%

    Tomorrow, 29 May, Friday

    Time Temperature Precipitation Wind Pressure Humidity
    00:00 +8°C° 0 mm 4 mps 716 mmHg 64%
    01:00 +8°C° 0 mm 4 mps 715 mmHg 63%
    02:00 +7°C° 0 mm 4 mps 715 mmHg 62%
    03:00 +8°C° 0 mm 3 mps 715 mmHg 61%
    04:00 +9°C° 0 mm 3 mps 715 mmHg 60%
    05:00 +9°C° 0 mm 3 mps 715 mmHg 58%
    06:00 +10°C° 0 mm 3 mps 715 mmHg 56%
    07:00 +12°C° 0 mm 3 mps 715 mmHg 49%
    08:00 +16°C° 0 mm 3 mps 715 mmHg 42%
    09:00 +18°C° 0 mm 2 mps 715 mmHg 35%
    10:00 +20°C° 0 mm 3 mps 715 mmHg 33%
    11:00 +21°C° 0 mm 3 mps 715 mmHg 31%
    12:00 +22°C° 0 mm 3 mps 715 mmHg 29%
    13:00 +24°C° 0 mm 3 mps 714 mmHg 29%
    14:00 +25°C° 0 mm 3 mps 714 mmHg 29%
    15:00 +25°C° 0 mm 4 mps 714 mmHg 28%
    16:00 +25°C° 0 mm 4 mps 714 mmHg 31%
    17:00 +23°C° 0 mm 5 mps 714 mmHg 34%
    18:00 +22°C° 0 mm 5 mps 714 mmHg 37%
    19:00 +20°C° 0 mm 5 mps 713 mmHg 44%
    20:00 +18°C° 0 mm 4 mps 713 mmHg 51%
    21:00 +14°C° 0 mm 4 mps 713 mmHg 59%
    22:00 +14°C° 0 mm 3 mps 713 mmHg 58%
    23:00 +13°C° 0 mm 3 mps 712 mmHg 58%

    Day after tomorrow, 30 May, Saturday

    Time Temperature Precipitation Wind Pressure Humidity
    00:00 +13°C° 0 mm 2 mps 712 mmHg 58%
    01:00 +13°C° 0 mm 2 mps 712 mmHg 56%
    02:00 +13°C° 0 mm 2 mps 712 mmHg 55%
    03:00 +12°C° 0 mm 2 mps 712 mmHg 53%
    04:00 +13°C° 0 mm 1 mps 712 mmHg 53%
    05:00 +14°C° 0 mm 1 mps 712 mmHg 53%
    06:00 +15°C° 0 mm 1 mps 712 mmHg 53%
    07:00 +18°C° 0 mm 1 mps 713 mmHg 47%
    08:00 +20°C° 0 mm 1 mps 713 mmHg 41%
    09:00 +22°C° 0 mm 1 mps 713 mmHg 36%
    10:00 +24°C° 0 mm 1 mps 713 mmHg 34%
    11:00 +25°C° 0 mm 1 mps 713 mmHg 33%
    12:00 +27°C° 0 mm 1 mps 713 mmHg 32%
    13:00 +27°C° 0 mm 2 mps 713 mmHg 31%
    14:00 +28°C° 0 mm 3 mps 713 mmHg 31%
    15:00 +28°C° 0 mm 4 mps 713 mmHg 31%
    16:00 +28°C° 0 mm 4 mps 713 mmHg 32%
    17:00 +28°C° 0 mm 4 mps 713 mmHg 33%
    18:00 +27°C° 0 mm 3 mps 713 mmHg 34%
    19:00 +25°C° 0 mm 3 mps 713 mmHg 41%
    20:00 +21°C° 0 mm 3 mps 713 mmHg 47%
    21:00 +19°C° 0 mm 3 mps 713 mmHg 54%
    22:00 +18°C° 0 mm 3 mps 714 mmHg 54%
    23:00 +17°C° 0 mm 3 mps 714 mmHg 55%

    31 May, Sunday

    Time Temperature Precipitation Wind Pressure Humidity
    00:00 +16°C° 0 mm 3 mps 714 mmHg 55%
    01:00 +16°C° 0 mm 3 mps 714 mmHg 55%
    02:00 +15°C° 0 mm 2 mps 714 mmHg 54%
    03:00 +15°C° 0 mm 2 mps 713 mmHg 54%
    04:00 +15°C° 0 mm 2 mps 714 mmHg 54%
    05:00 +16°C° 0 mm 2 mps 714 mmHg 54%
    06:00 +16°C° 0 mm 2 mps 714 mmHg 54%
    07:00 +18°C° 0 mm 2 mps 714 mmHg 48%
    08:00 +20°C° 0 mm 3 mps 714 mmHg 41%
    09:00 +24°C° 0 mm 3 mps 715 mmHg 35%
    10:00 +23°C° 0 mm 4 mps 714 mmHg 33%
    11:00 +25°C° 0 mm 4 mps 714 mmHg 31%
    12:00 +26°C° 0 mm 4 mps 714 mmHg 29%
    13:00 +27°C° 0 mm 4 mps 714 mmHg 28%
    14:00 +27°C° 0 mm 4 mps 714 mmHg 27%
    15:00 +28°C° 0 mm 4 mps 714 mmHg 27%
    16:00 +28°C° 0 mm 3 mps 713 mmHg 28%
    17:00 +28°C° 0 mm 3 mps 713 mmHg 29%
    18:00 +28°C° 0 mm 3 mps 713 mmHg 30%
    19:00 +25°C° 0 mm 3 mps 713 mmHg 36%
    20:00 +22°C° 0 mm 3 mps 712 mmHg 43%
    21:00 +19°C° 0 mm 3 mps 712 mmHg 49%
    22:00 +18°C° 0 mm 3 mps 712 mmHg 53%
    23:00 +17°C° 0 mm 2 mps 712 mmHg 58%

    1 June, Monday

    Time Temperature Precipitation Wind Pressure Humidity
    00:00 +16°C° 0 mm 1 mps 712 mmHg 62%
    01:00 +16°C° 0 mm 1 mps 711 mmHg 61%
    02:00 +16°C° 0 mm 1 mps 711 mmHg 61%
    03:00 +16°C° 0 mm 2 mps 711 mmHg 60%
    04:00 +16°C° 0 mm 1 mps 711 mmHg 59%
    05:00 +18°C° 0 mm 1 mps 711 mmHg 59%
    06:00 +19°C° 0 mm 1 mps 711 mmHg 58%
    07:00 +21°C° 0 mm 1 mps 711 mmHg 52%
    08:00 +23°C° 0 mm 1 mps 711 mmHg 46%
    09:00 +24°C° 0 mm 1 mps 711 mmHg 40%
    10:00 +26°C° 0 mm 1 mps 711 mmHg 37%
    11:00 +28°C° 0 mm 1 mps 711 mmHg 34%
    12:00 +30°C° 0 mm 1 mps 711 mmHg 31%
    13:00 +31°C° 0 mm 2 mps 711 mmHg 28%
    14:00 +32°C° 0 mm 2 mps 711 mmHg 25%
    15:00 +34°C° 0 mm 2 mps 711 mmHg 23%
    16:00 +34°C° 0 mm 2 mps 711 mmHg 24%
    17:00 +34°C° 0 mm 2 mps 711 mmHg 26%
    18:00 +34°C° 0 mm 2 mps 711 mmHg 27%
    19:00 +30°C° 0 mm 2 mps 710 mmHg 30%
    20:00 +27°C° 0 mm 2 mps 709 mmHg 33%
    21:00 +24°C° 0 mm 1 mps 709 mmHg 36%
    22:00 +23°C° 0 mm 1 mps 709 mmHg 36%
    23:00 +22°C° 0 mm 1 mps 709 mmHg 37%

    2 June, Tuesday

    Time Temperature Precipitation Wind Pressure Humidity
    00:00 +21°C° 0 mm 1 mps 709 mmHg 37%
    01:00 +20°C° 0 mm 1 mps 709 mmHg 42%
    02:00 +19°C° 0 mm 1 mps 708 mmHg 47%
    03:00 +17°C° 0 mm 2 mps 708 mmHg 52%
    04:00 +19°C° 0 mm 1 mps 709 mmHg 55%
    05:00 +20°C° 0 mm 1 mps 709 mmHg 58%
    06:00 +21°C° 0 mm 1 mps 709 mmHg 61%
    07:00 +23°C° 0 mm 1 mps 709 mmHg 54%
    08:00 +25°C° 0 mm 2 mps 710 mmHg 47%
    09:00 +28°C° 0 mm 2 mps 710 mmHg 41%
    10:00 +29°C° 0 mm 3 mps 710 mmHg 36%
    11:00 +31°C° 0 mm 3 mps 710 mmHg 32%
    12:00 +33°C° 0 mm 4 mps 710 mmHg 27%
    13:00 +33°C° 0 mm 5 mps 710 mmHg 26%
    14:00 +34°C° 0 mm 5 mps 710 mmHg 25%
    15:00 +34°C° 0 mm 6 mps 710 mmHg 24%
    16:00 +30°C° 0 mm 7 mps 709 mmHg 33%
    17:00 +28°C° 0 mm 8 mps 709 mmHg 43%
    18:00 +24°C° 0 mm 8 mps 709 mmHg 52%
    19:00 +23°C° 0.1 mm 7 mps 709 mmHg 56%
    20:00 +21°C° 0.1 mm 7 mps 709 mmHg 61%
    21:00 +19°C° 0.1 mm 6 mps 709 mmHg 66%
    22:00 +19°C° 0 mm 4 mps 709 mmHg 68%
    23:00 +18°C° 0 mm 3 mps 709 mmHg 70%
    Show more